Flag for U.S.A. Weather past 2 weeks in Sitka, Alaska, U.S.A.

Now
56 °F

Broken clouds.


Feels Like: 55 °F
Forecast: 54 / 58 °F
Wind: 6 mph from South

Location: Sitka Airport

Current Time: Aug 30, 2014 at 8:58:52 PM

Latest Report: Aug 30, 2014 at 7:53 PM


Visibility: 10 mi

Pressure: 29.73 "Hg

Humidity: 84%

Dew point: 51 °F

Location of SitkaLocation

Historic Weather in Sitka — Graph

°F

Sitka temperature yesterday

Maximum temperature yesterday: 58 °F (at 1:53 PM)
Minimum temperature yesterday: 51 °F (at 9:53 PM)
Average temperature yesterday: 55 °F

Past Weeks' High & Low Weather Summary

 TemperatureHumidityPressure
High70 °F (Aug 21, 4:53 PM)100% (Aug 19, 3:53 AM)30.22 "Hg (Aug 19, 3:53 AM)
Low48 °F (Aug 20, 4:53 AM)61% (Aug 20, 4:53 PM)29.47 "Hg (Aug 29, 12:53 PM)
Average57 °F87%29.98 "Hg
* Reported Aug 15 7:53 PM — Aug 30 7:53 PM, Sitka, Weather by CustomWeather, © 2014

Note: Actual official high and low records may vary slightly from our data, if they occured in-between our weather recording intervals... More about our weather records

Advertising

Sitka weather history for previous 24 hours

 ConditionsComfort  
Time TempWeatherWind HumidityBarometerVisibility
7:53 PM
Aug 30
56 °FBroken clouds.6 mph84%29.73 "Hg10 mi
6:53 PM57 °FBroken clouds.6 mph83%29.73 "Hg10 mi
5:53 PM58 °FBroken clouds.9 mph84%29.73 "Hg10 mi
4:53 PM57 °FBroken clouds.No wind90%29.73 "Hg10 mi
3:53 PM55 °FLight rain. Fog.6 mph93%29.73 "Hg6 mi
2:53 PM56 °FCloudy.12 mph97%29.71 "Hg7 mi
1:53 PM60 °FBroken clouds.9 mph83%29.70 "Hg10 mi
12:53 PM56 °FCloudy.5 mph93%29.70 "Hg10 mi
11:53 AM56 °FCloudy.No wind93%29.68 "Hg10 mi
10:53 AM55 °FLight rain. Fog.3 mph90%29.67 "Hg4 mi
9:53 AM54 °FMostly cloudy.5 mph93%29.66 "Hg10 mi
8:53 AM53 °FMostly cloudy.5 mph96%29.64 "Hg10 mi
7:53 AM51 °FMostly cloudy.3 mph100%29.63 "Hg10 mi
6:53 AM50 °FPartly cloudy.5 mph100%29.62 "Hg10 mi
5:53 AM49 °FPassing clouds.3 mph100%29.62 "Hg10 mi
4:53 AM48 °FOvercast.No wind100%29.60 "Hg10 mi
3:53 AM49 °FPassing clouds.No wind97%29.58 "Hg10 mi
2:53 AM49 °FPassing clouds.3 mph100%29.56 "Hg10 mi
1:53 AM50 °FOvercast.No wind100%29.55 "Hg10 mi
12:53 AM51 °FMostly cloudy.No wind100%29.54 "Hg10 mi
11:53 PM
Aug 29
51 °FOvercast.No wind100%29.53 "Hg10 mi
10:53 PM51 °FOvercast.5 mph100%29.52 "Hg10 mi
9:53 PM51 °FLight rain. Passing clouds.6 mph100%29.52 "Hg10 mi
8:53 PM53 °FLight rain. Mostly cloudy.6 mph96%29.51 "Hg10 mi
Weather by CustomWeather, © 2014

See weather overviewHow to use our weather pages